Вернуться в каталог

STARLINK-30575

АктивенСвязьVLEO
NORAD 58052·PAYLOAD·🇺🇸 United States

Запущен Oct 13, 2023 с Cape Canaveral Space Force Station

Loading…

Ближайшие Пролёты (ближайшие 24 часа)

TLE

СвежийSource: CelesTrak SupGP

Эпоха: Sep 14, 2026, 21:27 UTC

1 58052C 23158B   26257.89423611  .00053386  00000+0  19336-2 0  2570
2 58052  43.0039  38.8824 0001434 275.1411  31.9185 15.27552179    19

Отслеживайте STARLINK-30575 в реальном времени с AllMySat

Download on the App Store